| time (UTC) | temp F | wind direction | speed knots | gust knots | rain 1hr in | rain 24hr in | rain mn in | humidity % | barometer mb |
| 20260831071558 | 69 | 266 | 3.5 | 9.6 | 0.00 | 0.00 | 0.00 | 68 | 1018.9 |
| 20260831070115 | 70 | 257 | 2.6 | 7.0 | 0.00 | 0.00 | 0.00 | 64 | 1018.7 |
| 20260831064607 | 70 | 252 | 2.6 | 9.6 | 0.00 | 0.00 | 0.00 | 66 | 1018.7 |
| 20260831063105 | 70 | 246 | 1.7 | 7.8 | 0.00 | 0.00 | 0.00 | 66 | 1018.6 |
| 20260831061604 | 70 | 292 | 2.6 | 8.7 | 0.00 | 0.00 | 0.00 | 66 | 1018.5 |
| 20260831060109 | 71 | 225 | 2.6 | 7.0 | 0.00 | 0.00 | 0.00 | 67 | 1018.4 |
| 20260831054606 | 72 | 291 | 1.7 | 5.2 | 0.00 | 0.00 | 0.00 | 66 | 1018.3 |
| 20260831053112 | 71 | 298 | 2.6 | 7.8 | 0.00 | 0.00 | 0.00 | 65 | 1018.2 |
| 20260831051604 | 70 | 250 | 2.6 | 7.8 | 0.00 | 0.00 | 0.00 | 68 | 1018.4 |
| 20260831050115 | 69 | 261 | 2.6 | 9.6 | 0.00 | 0.00 | 0.00 | 69 | 1018.5 |
| 20260831044612 | 70 | 308 | 1.7 | 7.8 | 0.00 | 0.00 | 0.00 | 72 | 1018.5 |
| 20260831043102 | 70 | 275 | 1.7 | 7.0 | 0.00 | 0.00 | 0.00 | 71 | 1018.3 |
| 20260831041605 | 71 | 337 | 1.7 | 7.0 | 0.00 | 0.00 | 0.00 | 70 | 1018.3 |
| 20260831040107 | 70 | 0 | 1.7 | 7.0 | 0.00 | 0.00 | 0.00 | 68 | 1018.4 |
| 20260831034608 | 70 | 273 | 0.9 | 6.1 | 0.00 | 0.00 | 0.00 | 72 | 1018.5 |
| 20260831033107 | 70 | 246 | 1.7 | 5.2 | 0.00 | 0.00 | 0.00 | 72 | 1018.6 |
| 20260831031604 | 70 | 312 | 0.9 | 7.0 | 0.00 | 0.00 | 0.00 | 72 | 1018.9 |
| 20260831030108 | 68 | 48 | 0.9 | 7.0 | 0.00 | 0.00 | 0.00 | 75 | 1018.8 |
| 20260831024626 | 68 | 327 | 0.9 | 5.2 | 0.00 | 0.00 | 0.00 | 74 | 1018.8 |
| 20260831023110 | 69 | 297 | 1.7 | 7.0 | 0.00 | 0.00 | 0.00 | 75 | 1018.9 |
| 20260831021605 | 67 | 336 | 1.7 | 6.1 | 0.00 | 0.00 | 0.00 | 76 | 1018.6 |
| 20260831020111 | 67 | 327 | 0.9 | 6.1 | 0.00 | 0.00 | 0.00 | 77 | 1018.6 |
| 20260831014624 | 66 | 273 | 0.9 | 4.3 | 0.00 | 0.00 | 0.00 | 77 | 1018.8 |
| 20260831013100 | 67 | 0 | 0.0 | 3.5 | 0.00 | 0.00 | 0.00 | 78 | 1018.8 |
| 20260831011617 | 66 | 304 | 0.9 | 3.5 | 0.00 | 0.00 | 0.00 | 79 | 1018.9 |
| 20260831010104 | 65 | 333 | 0.9 | 4.3 | 0.00 | 0.00 | 0.00 | 81 | 1018.8 |
| 20260831004604 | 64 | 263 | 0.0 | 2.6 | 0.00 | 0.00 | 0.00 | 86 | 1018.8 |
| 20260831003106 | 63 | 268 | 0.0 | 2.6 | 0.00 | 0.00 | 0.00 | 90 | 1018.8 |
| 20260831001605 | 61 | 0 | 0.0 | 0.0 | 0.00 | 0.00 | 0.00 | 93 | 1018.7 |
| 20260831000108 | 60 | 0 | 0.0 | 0.0 | 0.00 | 0.00 | 0.00 | 94 | 1018.6 |
| 20260830234607 | 58 | 0 | 0.0 | 0.0 | 0.00 | 0.00 | 0.00 | 93 | 1018.5 |
| 20260830233107 | 57 | 0 | 0.0 | 0.9 | 0.00 | 0.00 | 0.00 | 94 | 1018.5 |
| 20260830231610 | 56 | 0 | 0.0 | 0.0 | 0.00 | 0.00 | 0.00 | 93 | 1018.2 |
| 20260830230109 | 56 | 0 | 0.0 | 0.0 | 0.00 | 0.00 | 0.00 | 93 | 1018.2 |
| 20260830224635 | 56 | 0 | 0.0 | 0.0 | 0.00 | 0.00 | 0.00 | 93 | 1018.1 |
| 20260830223104 | 56 | 0 | 0.0 | 0.9 | 0.00 | 0.00 | 0.00 | 94 | 1018.0 |
| 20260830221620 | 55 | 0 | 0.0 | 0.0 | 0.00 | 0.00 | 0.00 | 93 | 1017.8 |
| 20260830220134 | 56 | 0 | 0.0 | 0.0 | 0.00 | 0.00 | 0.00 | 93 | 1017.7 |
| 20260830214606 | 56 | 0 | 0.0 | 0.0 | 0.00 | 0.00 | 0.00 | 93 | 1017.6 |
| 20260830213104 | 56 | 0 | 0.0 | 0.0 | 0.00 | 0.00 | 0.00 | 93 | 1017.4 |
| 20260830211605 | 57 | 0 | 0.0 | 0.0 | 0.00 | 0.00 | 0.00 | 93 | 1017.2 |
| 20260830210105 | 56 | 0 | 0.0 | 0.0 | 0.00 | 0.00 | 0.00 | 93 | 1017.3 |
| 20260830204606 | 57 | 0 | 0.0 | 0.0 | 0.00 | 0.00 | 0.00 | 93 | 1017.2 |
| 20260830203105 | 57 | 0 | 0.0 | 0.0 | 0.00 | 0.00 | 0.00 | 93 | 1017.2 |
| 20260830201606 | 57 | 0 | 0.0 | 0.0 | 0.00 | 0.00 | 0.00 | 93 | 1017.4 |
| 20260830200105 | 57 | 0 | 0.0 | 0.0 | 0.00 | 0.00 | 0.00 | 93 | 1017.6 |
| 20260830194610 | 56 | 0 | 0.0 | 0.9 | 0.00 | 0.00 | 0.00 | 93 | 1017.6 |
| 20260830193101 | 56 | 0 | 0.0 | 0.0 | 0.00 | 0.00 | 0.00 | 92 | 1017.7 |
| 20260830191605 | 57 | 0 | 0.0 | 0.0 | 0.00 | 0.00 | 0.00 | 93 | 1017.7 |
| 20260830190104 | 56 | 0 | 0.0 | 0.0 | 0.00 | 0.00 | 0.00 | 93 | 1018.0 |
| 20260830184605 | 56 | 0 | 0.9 | 1.7 | 0.00 | 0.00 | 0.00 | 92 | 1017.9 |
| 20260830183103 | 57 | 0 | 0.0 | 0.0 | 0.00 | 0.00 | 0.00 | 93 | 1017.7 |
| 20260830181600 | 57 | 0 | 0.0 | 0.0 | 0.00 | 0.00 | 0.00 | 92 | 1017.8 |
| 20260830180104 | 56 | 0 | 0.0 | 0.0 | 0.00 | 0.00 | 0.00 | 93 | 1017.9 |
| 20260830174603 | 56 | 0 | 0.0 | 0.0 | 0.00 | 0.00 | 0.00 | 92 | 1017.9 |
| 20260830173107 | 55 | 0 | 0.0 | 0.0 | 0.00 | 0.00 | 0.00 | 92 | 1018.1 |
| 20260830171612 | 55 | 0 | 0.0 | 0.0 | 0.00 | 0.00 | 0.00 | 92 | 1018.2 |
| 20260830170109 | 54 | 0 | 0.0 | 0.0 | 0.00 | 0.00 | 0.00 | 93 | 1018.2 |
| 20260830164612 | 54 | 0 | 0.0 | 0.0 | 0.00 | 0.00 | 0.00 | 92 | 1018.2 |
| 20260830163100 | 54 | 0 | 0.0 | 0.9 | 0.00 | 0.00 | 0.00 | 92 | 1018.3 |
| 20260830161614 | 55 | 0 | 0.0 | 0.0 | 0.00 | 0.00 | 0.00 | 92 | 1018.2 |
| 20260830160107 | 54 | 0 | 0.0 | 0.0 | 0.00 | 0.00 | 0.00 | 91 | 1018.3 |
| 20260830154608 | 55 | 0 | 0.0 | 0.0 | 0.00 | 0.00 | 0.00 | 92 | 1018.4 |
| 20260830153102 | 55 | 0 | 0.0 | 0.0 | 0.00 | 0.00 | 0.00 | 92 | 1018.5 |
| 20260830151608 | 55 | 0 | 0.0 | 0.0 | 0.00 | 0.00 | 0.00 | 91 | 1018.5 |
| 20260830150105 | 56 | 0 | 0.0 | 0.0 | 0.00 | 0.00 | 0.00 | 91 | 1018.6 |
| 20260830144607 | 56 | 0 | 0.0 | 0.0 | 0.00 | 0.00 | 0.00 | 91 | 1018.6 |
| 20260830143114 | 56 | 0 | 0.0 | 1.7 | 0.00 | 0.00 | 0.00 | 91 | 1018.7 |
| 20260830141609 | 57 | 0 | 0.0 | 0.0 | 0.00 | 0.00 | 0.00 | 91 | 1018.5 |
| 20260830140109 | 57 | 0 | 0.0 | 0.0 | 0.00 | 0.00 | 0.00 | 90 | 1018.5 |
| 20260830134607 | 57 | 0 | 0.0 | 0.0 | 0.00 | 0.00 | 0.00 | 90 | 1018.6 |
| 20260830133104 | 58 | 0 | 0.0 | 0.0 | 0.00 | 0.00 | 0.00 | 90 | 1018.7 |
| 20260830131606 | 58 | 0 | 0.0 | 0.0 | 0.00 | 0.00 | 0.00 | 90 | 1018.8 |
| 20260830130110 | 58 | 0 | 0.0 | 0.9 | 0.00 | 0.00 | 0.00 | 89 | 1018.8 |
| 20260830124559 | 59 | 0 | 0.0 | 0.0 | 0.00 | 0.00 | 0.00 | 89 | 1018.8 |
| 20260830123127 | 60 | 0 | 0.0 | 0.0 | 0.00 | 0.00 | 0.00 | 88 | 1018.8 |
| 20260830121608 | 60 | 0 | 0.0 | 0.9 | 0.00 | 0.00 | 0.00 | 89 | 1018.7 |
| 20260830120105 | 61 | 0 | 0.0 | 0.0 | 0.00 | 0.00 | 0.00 | 88 | 1018.7 |
| 20260830114610 | 61 | 0 | 0.0 | 0.0 | 0.00 | 0.00 | 0.00 | 88 | 1018.7 |
| 20260830113104 | 62 | 0 | 0.0 | 0.0 | 0.00 | 0.00 | 0.00 | 87 | 1018.7 |
| 20260830111602 | 62 | 0 | 0.0 | 0.0 | 0.00 | 0.00 | 0.00 | 86 | 1018.7 |
| 20260830110105 | 63 | 0 | 0.0 | 0.9 | 0.00 | 0.00 | 0.00 | 85 | 1018.6 |
| 20260830104607 | 64 | 0 | 0.0 | 0.0 | 0.00 | 0.00 | 0.00 | 84 | 1018.4 |
| 20260830103104 | 64 | 0 | 0.0 | 0.0 | 0.00 | 0.00 | 0.00 | 82 | 1018.2 |
| 20260830101606 | 65 | 0 | 0.0 | 1.7 | 0.00 | 0.00 | 0.00 | 79 | 1018.1 |
| 20260830100106 | 66 | 257 | 0.0 | 3.5 | 0.00 | 0.00 | 0.00 | 74 | 1017.9 |
| 20260830094602 | 67 | 234 | 0.9 | 2.6 | 0.00 | 0.00 | 0.00 | 71 | 1017.8 |
| 20260830093114 | 69 | 0 | 0.0 | 3.5 | 0.00 | 0.00 | 0.00 | 69 | 1017.6 |
| 20260830091606 | 69 | 265 | 0.0 | 3.5 | 0.00 | 0.00 | 0.00 | 68 | 1017.5 |
| 20260830090105 | 69 | 251 | 2.6 | 6.1 | 0.00 | 0.00 | 0.00 | 66 | 1017.5 |
| 20260830084614 | 70 | 256 | 0.9 | 3.5 | 0.00 | 0.00 | 0.00 | 70 | 1017.4 |
| 20260830083104 | 70 | 250 | 1.7 | 5.2 | 0.00 | 0.00 | 0.00 | 71 | 1017.4 |
| 20260830081610 | 71 | 313 | 0.9 | 7.0 | 0.00 | 0.00 | 0.00 | 70 | 1017.4 |
| 20260830080106 | 72 | 348 | 1.7 | 6.1 | 0.00 | 0.00 | 0.00 | 70 | 1017.3 |
| 20260830074614 | 73 | 284 | 1.7 | 7.0 | 0.00 | 0.00 | 0.00 | 67 | 1017.4 |
| 20260830073105 | 74 | 249 | 2.6 | 6.1 | 0.00 | 0.00 | 0.00 | 63 | 1017.4 |